www.pogodaiklimat.ru

Погода и климат >> Архив погоды >> Россия >> Якутия >> Сухана


ПОГОДА в Сухане

  • Прогноз погоды в Сухане
  • Монитор погоды в Сухане
  • Климат города

АРХИВ ПОГОДЫ в Сухане

Время (UTC), дата Ветер
(напр.,м/с)
 
Видим.   Явления Облачность Т
(С)
Тd
(С)
f
(%)
Тe
(С)
Тes
(С)
Комфортность P
(гПа)
Po
(гПа)
Тmin
(С)
Tmax
(С)
R
(мм)
S
(см)
06 17.03 штиль 0 50 км ясно -13.7 -18.9 65 -14 -11 1015.2 1004.9
09 17.03 З 1 50 км ясно -11.6 -16.9 65 -14 -14 1015.9 1005.8
12 17.03 Ю 2 50 км ясно -16.6 -20.0 75 -22 -22 1017.6 1007.3 -11.6
15 17.03 С 1 50 км ясно -27.0 -29.4 80 -31 -31 опасность
обморожения
1017.8 1007.1
18 17.03 штиль 0 50 км ясно -29.6 -31.9 80 -30 -30 1016.6 996.7
21 17.03 штиль 0 50 км 8/0
[Cs]
-30.2 -32.5 80 -30 -30 1017.2 1006.3
00 18.03 штиль 0 50 км 1/0
[Ci fib]
-29.5 -31.9 80 -30 -29 1016.8 1005.9 -30.4 47
03 18.03 штиль 0 50 км 10/0
[Cs]
-21.8 -25.8 70 -22 -19 1016.2 1005.7
06 18.03 Ю 2 50 км 9/0
[Cc]
-9.6 -14.8 66 -14 -12 1015.4 1005.3
09 18.03 Ю 3 50 км 6/0
[Ac trans Cs]
-6.9 -13.1 61 -12 -12 1015.4 1005.5
12 18.03 Ю 3 50 км 8/0
[Ac As]
-7.7 -12.7 67 -13 -13 1015.8 1006.7 -6.4
15 18.03 Ю 2 50 км 8/0
[Ac As]
-7.9 -13.0 67 -12 -12 1016.6 1006.5
18 18.03 ЮЗ 2 50 км 4/0
[Ac As]
-8.0 -13.6 64 -12 -12 1017.4 1007.3
21 18.03 Ю 2 50 км 10/0
[Ac As]
-8.1 -12.2 72 -12 -12 1017.5 1009.4
00 19.03 ЮЗ 2 50 км 10/0
[As op]
-7.3 -10.3 79 -12 -12 1018.1 1008.2 -8.3 47
03 19.03 Ю 1 50 км 10/10 1000 м
[Sc]
-5.4 -9.6 72 -8 -8 1019.0 1009.1
06 19.03 ЮЗ 1 50 км 4/1 600 м
[Cu hum Cs]
-1.3 -6.7 67 -3 -1 1019.3 1009.4
09 19.03 З 2 50 км 10/10 1000 м
[Sc]
-0.5 -6.2 65 -4 -4 1020.4 1010.6
12 19.03 штиль 0 50 км 10/0
[Ac As]
-1.8 -5.5 76 -3 -3 1021.9 1012.1 -0.2
15 19.03 З 1 50 км 10/0
[Ac As]
-2.2 -6.4 73 -4 -4 1022.3 1012.5
18 19.03 ЮЗ 2 50 км 4/0
[Ac trans]
-2.3 -6.1 75 -6 -6 1022.8 1013.0
21 19.03 Ю 1 50 км 1/0
[Ac trans]
-5.4 -7.9 83 -8 -8 1023.3 1013.3
00 20.03 Ю 2 50 км 9/0
[Ac trans Cs]
-5.7 -8.7 79 -10 -9 1024.3 1014.3 -6.7 47
03 20.03 Ю 2 50 км 6/0
[Ac As Ci sp]
-2.5 -8.4 64 -6 -4 1024.9 1015.1
06 20.03 Ю 2 50 км 9/9 1000 м
[Sc]
-0.5 -7.4 60 -4 -4 1025.0 1015.2
09 20.03 З 2 50 км 3/1 1000 м
[Sc Ac trans Ci fib]
+0.7 -5.8 62 -2 -2 1025.3 1015.5
12 20.03 СЗ 1 50 км 1/1 600 м
[Cu hum]
-2.6 -8.3 65 -4 -4 1025.6 1015.8 +1.2
15 20.03 С 2 50 км ясно -12.0 -13.3 90 -17 -17 1026.0 1015.8
21 20.03 штиль 0 50 км ясно -19.7 -20.9 90 -20 -20 1025.6 1015.0
00 21.03 В 1 50 км 3/0
[Cs]
-21.2 -23.0 85 -24 -23 1025.3 1014.7 -21.7 43
03 21.03 Ю 2 50 км ясно -12.9 -15.6 80 -18 -15 1024.3 1013.9
06 21.03 Ю 2 50 км ясно -2.9 -9.1 62 -7 -4 1022.7 1012.7
09 21.03 З 1 50 км 6/0
[Ci fib]
-0.4 -7.7 58 -2 -1 1021.7 1011.9
12 21.03 З 2 50 км 3/0
[Ci fib]
-6.8 -12.0 66 -11 -11 1021.5 1011.5 -0.4
15 21.03 СЗ 1 50 км ясно -15.2 -16.5 90 -18 -18 1021.4 1011.0
21 21.03 штиль 0 50 км 9/0
[Ac As]
-21.3 -22.5 90 -21 -21 1021.3 1010.7
00 22.03 штиль 0 50 км 10/0
[Ac trans Cs]
-21.0 -22.8 85 -21 -20 1022.7 1012.1 -21.3 43
03 22.03 штиль 0 50 км 5/3 1000 м
[Sc Ac trans]
-15.8 -18.5 80 -16 -13 1023.4 1013.0
06 22.03 Ю 1 50 км 1/1 600 м
[Cu hum]
-3.7 -9.0 67 -6 -3 1023.1 1013.1
09 22.03 Ю 1 50 км 1/1 1000 м
[Sc]
-2.2 -9.4 58 -4 -3 1023.9 1014.1
12 22.03 СЗ 1 50 км 3/0
[Ci fib]
-8.2 -11.4 78 -10 -10 1024.8 1014.6 -0.7
15 22.03 штиль 0 50 км ясно -16.3 -17.6 90 -16 -16 1026.4 1015.0
21 22.03 штиль 0 50 км 4/0
[Ac trans Ci fib]
-24.9 -26.7 85 -25 -25 1024.9 1014.1
12 23.03 З 2 50 км 10/0
[Ac As]
-3.6 -8.9 67 -7 -7 1015.8 1005.9 -1.0
15 23.03 З 2 50 км 10/0
[Ac As]
-3.6 -8.9 67 -7 -7 1014.9 1005.0
18 23.03 З 2 50 км 10/0
[Ac As]
-6.5 -9.9 77 -11 -11 1014.9 1005.0
21 23.03 штиль 0 20 км слабый снег 10/0
[As op]
-10.6 -12.6 85 -11 -11 1014.8 1004.7
00 24.03 штиль 0 20 км слабый снег 10/0
[As op]
-10.8 -12.1 90 -11 -11 1015.8 1005.5 -11.0 0.2 43
03 24.03 Ю 1 50 км {снег} 8/0
[Ac trans Ci fib]
-5.1 -9.2 73 -7 -4 1015.7 1005.8

 

Местоположение метеостанции Сухана (Якутия, Россия): широта 68.62 долгота 118.30 высота над уровнем моря 77 м.

В архиве по умолчанию представлена погода в Сухане за последнюю неделю. Архивные данные за месяц целиком и за предыдущие месяцы, начиная с января 2011 года, Вы можете получить, выбрав интересующий диапазон дат из раскрывающегося списка и нажав кнопку "Ввод!".

Внимание! Время в таблицах - всемирное. Для получения местного времени необходимо прибавить поправку, которая в Сухане равна 9 ч.

Смотрите также архив погоды в соседних городах и на ближайших метеорологических станциях:

Погода в Джарджане (Якутия, Россия) (231 км)
Погода в Оленеке (Якутия, Россия) (240 км)
Погода в Джалинде (Якутия, Россия) (241 км)
Погода в Эйке (Якутия, Россия) (291 км)
Погода в Жиганске (Якутия, Россия) (294 км)
Погода в Шелагонцах (Якутия, Россия) (316 км)
Погода в Полярном (Якутия, Россия) (326 км)
Погода в Саскылахе (Якутия, Россия) (406 км)
Погода в Тюмяти (Якутия, Россия) (415 км)
Погода в Кюсюре (Якутия, Россия) (419 км)

Пояснения к столбцам:

Ветер - указаны скорость ветра в м/с - средняя за 10 мин, порывы в срок и между сроками (в фигурных скобках) и направление, откуда дует ветер: С - северный, СВ - северо-восточный, В - восточный, ЮВ - юго-восточный, Ю - южный, ЮЗ - юго-западный, З - западный, СЗ - северо-западный.
Видимость - горизонтальная дальность видимости в метрах или километрах. При видимости от 1 до 10 км при отсутствии осадков обычно наблюдается дымка, при ухудшении видимости до 1 км и менее - туман. В сухую погоду видимость может ухудшаться дымом, пылью или мглою.
Явления - указаны атмосферные явления, наблюдавшиеся в срок или в последний час перед сроком; фигурными скобками обозначены явления, наблюдавшиеся между сроками (за 1-3 часа до срока); квадратными скобками обозначены град или гололедные отложения с указанием их диаметра в мм.
Облачность - указаны через наклонную черту общая и нижняя облачность в баллах и высота нижней границы облаков в метрах; квадратными скобками обозначены формы облаков: Ci - перистые, Cs - перисто-слоистые, Cc - перисто-кучевые, Ac - высококучевые, As - высокослоистые, Sc - слоисто-кучевые, Ns - слоисто-дождевые, Cu - кучевые, Cb - кучево-дождевые. Подробнее классификацию облаков см. в Атласе облаков (PDF).
T - Температура воздуха - температура, измеренная на высоте 2 м над землей.
Td - Температура точки росы - температура, при понижении до которой содержащийся в воздухе водяной пар достигнет насыщения.
f - Относительная влажность воздуха - влажноcть воздуха, измеренная на высоте 2 м над землей.
Te - Эффективная температура - температура, которую ощущает одетый по сезону человек в тени. Характеристика душности погоды. При расчете учитывается влияние влажности воздуха и скорости ветра на теплоощущения человека.
Tes - Эффективная температура на солнце - температура, которую ощущает человек, с поправкой на солнечный нагрев. Характеристика знойности погоды. Зависит от высоты солнца над горизонтом, облачности и скорости ветра. Ночью, в пасмурную погоду, а также при ветре 12 м/с и более поправка равна нулю.
P - Атмосферное давление - приведенное к уровню моря атмосферное давление.
Po - Атмосферное давление - измеренное на уровне метеостанции атмосферное давление.
Tmin - Минимальная температура - минимум температуры воздуха на высоте 2 м над землей.
Tmax - Максимальная температура - максимум температуры воздуха на высоте 2 м над землей.
R - Количество осадков - Количество выпавших осадков, мм. При наведении курсора мыши на число - период времени, за который выпало указанное количество осадков.
S - Снежный покров - Высота снежного покрова, см. При наведении курсора мыши на число - состояние снежного покрова и степень покрытия местности в баллах.